STARLINK-1813, 46711

Orbit data source: Space-Track

STARLINK-1813, 46711 is a payload satellite owned by SpaceX/Seattle (US) in LEO that was launched on Sun, 18 Oct 2020 UTC via an FALCON 9 launch vehicle from the Air Force Eastern Test Range (AFETR). Payloads include a variety of satellites, spacecraft, and rockets equipped with specific instruments for various scientific and technological missions. These include communications satellites like Starlink; space stations such as the ISS; scientific satellites like the Hubble; Earth observation satellites from companies like Planet Labs, Umbra, and HawkEye 360; GPS; miniature CubeSats for education and research; and military/defense satellites.

Loading next visibility...
STARLINK-1813 details
Identifier
46711, 2020-073AT
Orbit
LEO
Last TLE update14 hours ago
Origin
Flag of USSpaceX/Seattle (US)
ManufacturerSpaceX/Seattle
MissionPartially operational Commercial Communications
Bus & MotorSTARLINK, Unknown motor
Mass260 kg wet, ~248 kg dry
Launch date (UTC)
2020-10-18 (4 years ago)
Launch vehicle
FALCON 9
Launch site
Air Force Eastern Test Range (AFETR)
Object type
Payload
Rocket body
Debris
Shape & HBRBox + 1 Pan, 8.86 m
Radar Cross Section13.562 m², Large (>1 m²)

Expand to show TLE details & history

TLE from 14 hours ago
0 STARLINK-1813
1 46711U 20073AT  24339.58334491  .00251827  00000-0  16936-2 0  9991
2 46711  53.0496 140.0244 0000709  50.2383 319.3082 15.73899340  5864
Epoch: 2024-12-04T14:00Z
Definitive object data (Epoch: 2024-12-04T14:00:01Z)
Latitude7.57893°
Longitude-138.14463°
Altitude347.641 km
Speed7.702 km/s
True Right ascension09h 42m 56s
True Declination7° 31' 53"
Sunlit
Object was in daylight at TLE epoch
Visualization TLE readout
Latitude29.62814°
Longitude-121.54909°
Altitude348.133 km
Speed7.704 km/s
Apparent Right ascension12h 10m 04s
Apparent Declination-4° 23' 21"
Sunlit
Object is in daylight
Visualization observer readout
Local Sidereal Time01:47:26
Azimuth38.097° NE
Elevation-48.233°
Doppler factor1
Orbital elements
Apogee altitude348.521 km
Perigee altitude347.567 km
Semi-major axis6,726.181 km
Eccentricity0.0000709
Inclination53.0496°
RAAN140.0244°
Arg. of periapsis50.2383°
True anomaly319.3029°
Mean anomaly319.3082°
Eccentric anomaly319.30555°
Mean motion3.93451 °/min
BSTAR0.0016936
Orbital period91.5 mins
Loading maneuver chart data...
Loading historical data...
Loading historical data...
Loading historical data...
Loading historical data...
Loading historical data...
Loading historical data...
Loading historical data...

STARLINK-1813 Visibility forecast

Observer location: undefined°, undefined

Span
Click to sort rows by Start time (UTC) header in descending order
Start Az.
Max El. time (UTC)
Max El. Az.
Max El.
End time (UTC)
End Az.
4 mins2024-12-05 12:59:08.415Z193.421° SSW2024-12-05 13:01:08.415Z137.616° SSE27.07°2024-12-05 13:03:08.415Z76.334° E
|